Location: Chandolas
(44.4033°N, 4.2533°E)
Time: 22:32:34
(UTC+00:00)

SL-08 R/B - Pass Details

Date: 15 November 2019
Orbit: 944 x 1008 km, 82.9° (Epoch: 11 December)

Event Time Altitude Azimuth Distance (km) Brightness Sun altitude
Rises 05:39:25 0° 191° (S) 3,631 7.6 -10.7°
Reaches altitude 10° 05:41:55 10° 193° (SSW) 2,681 6.9 -10.3°
Maximum altitude 05:48:02 75° 279° (W) 985 4.4 -9.2°
Drops below altitude 10° 05:54:09 10° 5° (N) 2,674 6.7 -8.2°
Sets 05:56:39 0° 7° (N) 3,622 7.4 -7.8°
